Location: Caoba
(9.7667°N, 67.4833°W)
Time: 19:09:08
(UTC+00:00)

GOES 2 Rocket - Pass Details

Date: 07 December 2024
Orbit: 569 x 1662 km, 28.4° (Epoch: 14 January)

Event Time Altitude Azimuth Distance (km) Brightness Sun altitude
Rises 23:41:12 0° 219° (SW) 4,728 8.6 -22.0°
Reaches altitude 10° 23:45:08 10° 209° (SSW) 3,614 7.6 -22.9°
Maximum altitude 23:52:45 29° 154° (SSE) 2,157 5.7 -24.6°
Enters shadow 23:55:06 25° 126° (SE) 2,220 5.5 -25.2°
